Regional Weather Roundup
Issued by NWS

Home | Current Version | Previous Version | Text Only | Print | Product List | Glossary On
Versions: 1 2 3 4 5 6 7 8 9 10 11 12 13 14 15 16 17 18 19 20 21 22 23 24 25 26 27 28 29 30 31 32 33 34 35 36 37 38 39 40 41 42 43 44 45 46 47 48 49 50
000
ASUS45 KCYS 310910
RWRWY

WYOMING REGIONAL WEATHER ROUNDUP
NATIONAL WEATHER SERVICE CHEYENNE WY
300 AM MDT SUN AUG 31 2014

NOTE:  "FAIR" INDICATES FEW OR NO CLOUDS BELOW 12,000 FEET
WITH NO SIGNIFICANT WEATHER AND/OR OBSTRUCTIONS TO VISIBILITY.

WYZ001-311000-
YELLOWSTONE NATIONAL PARK

CITY           SKY/WX    TMP DP  RH WIND       PRES   REMARKS
LK YELLOWSTONE   N/A     38  37  97 CALM      30.06F
W YELLOWSTONE  NOT AVBL

$$
WYZ002>013-054>058-071-098>099-311000-
NORTHERN WYOMING

CITY           SKY/WX    TMP DP  RH WIND       PRES   REMARKS
JACKSON        CLOUDY    46  45  93 N3        29.99S
CODY           CLOUDY    55  41  58 W12G17    29.86S
GREYBULL       CLOUDY    55  53  93 SE5       29.83F
WORLAND        CLOUDY    53  51  93 S3        29.85R
SHERIDAN       CLOUDY    52  49  89 SW3       29.82S
BUFFALO        CLOUDY    54  48  80 S3        29.86S
GILLETTE       PTCLDY    52  49  89 SW3       29.82F
HULETT         FAIR      52  48  87 MISG      29.83
NEWCASTLE      FAIR      52  50  93 N5        29.85

$$
WYZ014>020-022>026-101>103-311000-
CENTRAL WYOMING

CITY           SKY/WX    TMP DP  RH WIND       PRES   REMARKS
BIG PINEY      LGT RAIN  48  43  82 NW9       30.04R
PINEDALE       CLOUDY    45  45 100 CALM      30.05R
DUBOIS         FAIR      45  37  76 N12       29.97R
LANDER         LGT RAIN  53  45  74 SW10      29.93S
RIVERTON       LGT RAIN  54  49  83 S10       29.92S
CASPER         LGT RAIN  51  48  89 CALM      29.92R
DOUGLAS        MOCLDY    52  49  89 N3        29.88S

$$
WYZ021-027>030-104>119-311000-
SOUTHERN WYOMING

CITY           SKY/WX    TMP DP  RH WIND       PRES   REMARKS
EVANSTON       CLOUDY    54  44  69 NW15G23   30.04R
KEMMERER       CLOUDY    50  39  66 NW10      30.07R
FORT BRIDGER   PTSUNNY   55  44  66 N9        30.06R
ROCK SPRINGS   CLOUDY    51  47  86 N12       30.01R
DIXON          LGT RAIN  55  47  76 N3        30.07R
RAWLINS        CLOUDY    50  48  93 SE5       30.01F
SARATOGA       PTSUNNY   48  46  93 N6        30.05F
LARAMIE        MOCLDY    49  43  80 S7        29.99F
CHEYENNE       MOCLDY    55  46  71 NW7       29.96F
TORRINGTON     PTCLDY    56  51  84 S6        29.83F
PINE BLUFFS    FAIR      54  50  87 S3        29.93S

$$



USA.gov is the U.S. government's official web portal to all federal, state and local government web resources and services.